Location: Pinon Hills
(34.4429°N, 117.6403°W)
Time: 17:01:58
(UTC-08:00)

XW-2F - Pass Details

Date: 28 October 2019
Orbit: 503 x 523 km, 97.5° (Epoch: 22 November)

Event Time Altitude Azimuth Distance (km) Brightness Sun altitude
Rises 18:50:57 0° 193° (SSW) 2,607 ? -10.9°
Reaches altitude 10° 18:53:18 10° 207° (SSW) 1,723 ? -11.3°
Maximum altitude 18:56:24 25° 263° (W) 1,064 ? -12.0°
Drops below altitude 10° 18:59:29 10° 320° (NW) 1,724 ? -12.6°
Sets 19:01:51 0° 334° (NNW) 2,611 ? -13.1°
